Nashville, TN

1:53 PM CDT on May 28, 2017 (GMT -0500)
Nashville International

Weather History for KBNA - October, 2013

Change the Weather History Date:

Wednesday, October 2, 2013

  Actual Average Record
Temperature  
Mean Temperature 75 °F 65 °F  
Max Temperature 79 °F 76 °F 91 °F (1953)
Min Temperature 70 °F 54 °F 32 °F (1984)
Degree Days  
Heating Degree Days 0    
Month to date heating degree days 0  
Since 1 July heating degree days 2  
Cooling Degree Days 10    
Month to date cooling degree days 20  
Year to date cooling degree days 1664  
Growing Degree Days 24 (Base 50)    
Moisture  
Dew Point 67 °F    
Average Humidity 80    
Maximum Humidity 93    
Minimum Humidity 67    
Precipitation  
Precipitation 0.16 in 0.10 in 1.33 in (1937)
Month to date precipitation 0.16 0.20  
Year to date precipitation 42.19 35.86  
Snow  
Snow 0.00 in - 0.00 in (2002)
Month to date snowfall 0.0  
Since 1 July snowfall 0.0  
Since 1 September snowfall 0.0  
Snow Depth 0.00 in    
Sea Level Pressure  
Sea Level Pressure 30.10 in    
Wind  
Wind Speed 3 mph (ESE)    
Max Wind Speed 8 mph    
Max Gust Speed 13 mph    
Visibility 9 miles    
Events Rain    
T = Trace of Precipitation, MM = Missing Value Source: NWS Daily Summary

Daily Weather History Graph

Daily Weather History Graph

Search for Another Location

Airport or City:

Trip Planner

Search our weather history database for the weather conditions in past years. The results will help you decide how hot, cold, wet, or windy it might be!

Date:

Astronomy

Oct. 02, 2013 Rise Set
Actual Time 6:42 AM CDT 6:28 PM CDT
Civil Twilight 6:17 AM CDT 6:54 PM CDT
Nautical Twilight 5:47 AM CDT 7:23 PM CDT
Astronomical Twilight 5:17 AM CDT 7:53 PM CDT
Moon 4:18 AM CDT (10/2) 5:01 PM CDT (10/2)
Length of Visible Light 12h 36m
Length of Day
11h 45m
Waning Crescent, 6% of the Moon is Illuminated
Oct 2
Waning Crescent
Oct 4
New
Oct 11
First Quarter
Oct 18
Full
Oct 26
Last Quarter

Hourly Weather History & Observations

Time (CDT) Temp. Dew Point Humidity Pressure Visibility Wind Dir Wind Speed Gust Speed Precip Events Conditions
12:53 AM 71.1 °F 66.0 °F 84% 30.07 in 10.0 mi South 4.6 mph - N/A   Mostly Cloudy
1:53 AM 71.1 °F 66.0 °F 84% 30.08 in 10.0 mi Calm Calm - N/A   Mostly Cloudy
2:53 AM 71.1 °F 66.0 °F 84% 30.07 in 10.0 mi Calm Calm - N/A   Overcast
3:53 AM 71.1 °F 66.0 °F 84% 30.08 in 10.0 mi Calm Calm - N/A   Overcast
4:53 AM 71.1 °F 66.0 °F 84% 30.09 in 10.0 mi Calm Calm - N/A   Overcast
5:53 AM 70.0 °F 66.0 °F 87% 30.10 in 10.0 mi Calm Calm - N/A   Overcast
6:53 AM 70.0 °F 66.0 °F 87% 30.12 in 10.0 mi SSW 3.5 mph - N/A   Overcast
7:53 AM 71.1 °F 66.0 °F 84% 30.13 in 5.0 mi Calm Calm - 0.05 in Rain Light Rain
8:41 AM 69.8 °F 66.2 °F 88% 30.16 in 2.5 mi SE 3.5 mph - 0.04 in Rain Light Rain
8:53 AM 70.0 °F 66.0 °F 87% 30.15 in 2.5 mi ESE 5.8 mph - 0.04 in Rain Light Rain
9:10 AM 71.6 °F 68.0 °F 88% 30.16 in 4.0 mi East 3.5 mph - 0.00 in   Overcast
9:53 AM 71.1 °F 68.0 °F 90% 30.15 in 6.0 mi ESE 4.6 mph - 0.00 in Rain Light Rain
10:53 AM 73.0 °F 68.0 °F 84% 30.14 in 10.0 mi East 6.9 mph - 0.00 in   Overcast
11:53 AM 73.9 °F 68.0 °F 82% 30.13 in 10.0 mi SE 3.5 mph - N/A   Overcast
12:53 PM 75.9 °F 68.0 °F 76% 30.11 in 10.0 mi Calm Calm - N/A   Overcast
1:53 PM 77.0 °F 68.0 °F 74% 30.09 in 10.0 mi East 3.5 mph - N/A   Overcast
2:53 PM 78.1 °F 68.0 °F 71% 30.07 in 10.0 mi East 3.5 mph - N/A   Overcast
3:53 PM 77.0 °F 68.0 °F 74% 30.07 in 10.0 mi East 5.8 mph - N/A   Mostly Cloudy
4:53 PM 78.1 °F 66.9 °F 68% 30.06 in 10.0 mi East 3.5 mph - N/A   Mostly Cloudy
5:53 PM 75.9 °F 66.0 °F 71% 30.06 in 10.0 mi East 4.6 mph - N/A   Mostly Cloudy
6:53 PM 73.9 °F 69.1 °F 85% 30.07 in 10.0 mi NNE 5.8 mph - N/A   Overcast
7:53 PM 73.9 °F 68.0 °F 82% 30.08 in 10.0 mi Calm Calm - N/A   Overcast
8:53 PM 73.0 °F 69.1 °F 87% 30.09 in 7.0 mi SSW 3.5 mph - 0.01 in Rain Rain
9:53 PM 71.1 °F 68.0 °F 90% 30.09 in 10.0 mi SSW 3.5 mph - 0.06 in   Overcast
10:53 PM 72.0 °F 69.1 °F 91% 30.09 in 10.0 mi Calm Calm - N/A   Overcast
11:53 PM 72.0 °F 69.1 °F 91% 30.08 in 10.0 mi South 3.5 mph - N/A   Overcast